NOAA 16 DEB

Satellite information

Favourite Embed

Satellite Type and Status

DEBRISIN ORBIT

Key statistics

Satellite NOAA 16 DEB at a glance.

Uptime

9109

Days in orbit

Revolutions

≈ 14.3

Per day

Orbit

SSO

Sun Synchronous Orbit

Inclination

98.6

Latest

Satellite identification and parameters

Extended collection of information and parameters for NOAA 16 DEB.

Object identification

Identified? True

Debris? True

Object name: NOAA 16 DEB

International designator: 2000-055QB

Object number (NORAD): 42335

Object ID (CCSDS): 42335

Country: UNITED STATES OF AMERICA (US)

Current information (Y/N): Y

RCS size: SMALL

Orbital parameters

Period: 100.49 minutes

Inclination: 98.5797 deg

SMA: 7159.935 km

Apoapsis: 798.539 km

Periapsis: 765.061 km

RAAN: 296.1908 deg

Eccentricy: 0.00233787

Argument of periapsis: 344.7008 deg

Mean anomaly: 15.3466 deg

Mean motion: 14.3297662 rev/day

Mean motion (dot): 0.00004635 rev/day2

B* drag term: 0.0017042948 1/REarth

Two-line elements (TLE)

Creation date: Aug. 28, 2025, 2:53 a.m.

Reference frame: TEME

Reference center: EARTH

Epoch: Aug. 27, 2025, 9:38 p.m. UTC

TLE line 0: 0 NOAA 16 DEB

TLE line 1: 1 42335U 00055QB 25239.90183752 .00004635 00000-0 17043-2 0 9998

TLE line 2: 2 42335 98.5797 296.1908 0023379 344.7008 15.3466 14.32976620491154

Live tracking on map

Real-time ground track for satellite NOAA 16 DEB.

In-orbit conjunctions

A list of the most updated potential collisions computed for object NOAA 16 DEB.

Target Orbit TCA Probability of collision Miss distance Type
COSMOS 783 LEO 2025-01-06 08:35:11 0.001126993 68.0 (m) PAYLOAD

Associated space launch

The NOAA K, L and M POES satellites begin the fifth generation of improved environmental monitoring in support of NOAA missions. The instrument payload has significant improvements and additions/deletions. The instrument changes have effected the spacecraft subsystems and data formats.

NOAA 16 DEB was lifted into orbit during the mission ‘Titan II SLV | NOAA 16’, on board a Titan II SLV space rocket.

The launch took place on Sept. 21, 2000, 10:22 a.m. from Space Launch Complex 4W.

For more information about the launch, click the button.

Launch to space Titan II SLV | NOAA 16
Titan II SLV | NOAA 16

Agency: N/A

Status: Launch Successful

Launch date: Sept. 21, 2000, 10:22 a.m. UTC

Rocket: Titan II SLV

Launch pad: Space Launch Complex 4W

Location: Vandenberg SFB, CA, USA

...

Latest news about this satellite

There are no fresh news available about this satellite. Check back as we update our databases every day.


Newsletter sign-up

Weekly statistics, charts and insights to help you stay on top of the space industry.